OBJECT H

Satellite information

Favourite Embed

Satellite Type and Status

UNKNOWNIN ORBIT

Key statistics

Satellite OBJECT H at a glance.

Uptime

2131

Days in orbit

Revolutions

≈ 14.9

Per day

Orbit

SSO

Sun Synchronous Orbit

Inclination

97.8

Latest

Satellite identification and parameters

Extended collection of information and parameters for OBJECT H.

Object identification

Identified? True

Debris? False

Object name: OBJECT H

International designator: 2019-093H

Object number (NORAD): 44886

Object ID (CCSDS): 44886

Country: TO BE DETERMINED/UNKNOWN (TBD)

Current information (Y/N): Y

RCS size: MEDIUM

Orbital parameters

Period: 96.425 minutes

Inclination: 97.8156 deg

SMA: 6965.514 km

Apoapsis: 596.419 km

Periapsis: 578.339 km

RAAN: 17.4908 deg

Eccentricy: 0.00129783

Argument of periapsis: 141.0003 deg

Mean anomaly: 219.2154 deg

Mean motion: 14.93389142 rev/day

Mean motion (dot): 0.00006379 rev/day2

B* drag term: 0.00061195635 1/REarth

Two-line elements (TLE)

Creation date: Oct. 20, 2025, 2:10 a.m.

Reference frame: TEME

Reference center: EARTH

Epoch: Oct. 19, 2025, 11:05 p.m. UTC

TLE line 0: 0 OBJECT H

TLE line 1: 1 44886U 19093H 25292.96187909 .00006379 00000-0 61196-3 0 9992

TLE line 2: 2 44886 97.8156 17.4908 0012978 141.0003 219.2154 14.93389142316304

Live tracking on map

Real-time ground track for satellite OBJECT H.

In-orbit conjunctions

There are no conjunctions computed for OBJECT H, at the moment. Check back to stay up to date, as we update our databases every day.

Go to all conjunctions

Associated space launch

On April 24, 2015, China and Brazil have signed the agreement for the construction of CBERS-4A. It's a third satellite in the continuity to the CBERS program, and a sixth CBERS satellite to be constructed. The CBERS satellites enhance and complement the existing remote sensing systems in an effort to improve our knowledge about the Earth environment and resources.

OBJECT H was lifted into orbit during the mission ‘Long March 4B | CBERS-4A’, on board a Long March 4B space rocket.

The launch took place on Dec. 20, 2019, 3:22 a.m. from Launch Complex 9.

For more information about the launch, click the button.

Launch to space Long March 4B | CBERS-4A
Long March 4B | CBERS-4A

Agency: N/A

Status: Launch Successful

Launch date: Dec. 20, 2019, 3:22 a.m. UTC

Rocket: Long March 4B

Launch pad: Launch Complex 9

Location: Taiyuan Satellite Launch Center, People's Republic of China

...

Latest news about this satellite

News about space launch
Long March 4B lofts CBERS-04A and Ethiopia’s first satellite


Newsletter sign-up

Weekly statistics, charts and insights to help you stay on top of the space industry.